Starlink 3823

operational
NORAD ID: 52336 Int'l Des: 2022-045 Owner: SPXS Country: US Constellation: starlink
LEOCIRCULAR

Über Starlink 3823

Beschreibung wird geladen...

Live-Position

3D-Globus wird geladen...

Nächste Überflüge

Höhenverlauf

Altitude vs Time

uPlot chart will show altitude changes over time

Zweizeiliger Elementsatz

1 52336U 22045F 25298.41840042 -.00000693 00000-0 -25467-4 0 9999
2 52336 53.2159 96.1732 0001272 86.1944 273.9194 15.08833361195220
Epoch: 25. Okt. 2025 • Age: 12 hours

Aktueller Status

Höhe 540.9 km
Geschwindigkeit 7.59 km/s
Subsatellitenpunkt -1.48°S, 89.08°W
Startdatum 29. Apr. 2022
Alter 3.4 years
Typ internet

Technische Details

Klassifizierung Payload
Masse 297.00 kg
Trockenmasse 275.00 kg
Gesamtmasse 297.00 kg
Länge 0.20 m
Durchmesser 2.80 m
Spannweite 9.00 m
Form Box + pan
Hersteller SPXS
Bus-Typ Starlink
Phasenstatus In Orbit
Besitzer/Staat SPXS/US

Große Konstellationen

Loading constellations...